| time (UTC) | temp C | wind direction | speed KPH | gust KPH | rain 1hr cm | rain 24hr cm | rain mn cm | humidity % | barometer mb |
| 20260509143821 | 23 | 200 | 4.8 | 11.3 | 0.00 | 0.00 | 0.00 | 91 | 1010.2 |
| 20260509143325 | 23 | 165 | 3.2 | 11.3 | 0.00 | 0.00 | 0.00 | 91 | 1010.0 |
| 20260509142829 | 23 | 171 | 4.8 | 11.3 | 0.00 | 0.00 | 0.00 | 91 | 1009.9 |
| 20260509142343 | 23 | 136 | 4.8 | 11.3 | 0.00 | 0.00 | 0.00 | 91 | 1010.0 |
| 20260509141849 | 23 | 153 | 3.2 | 8.0 | 0.00 | 0.00 | 0.00 | 91 | 1010.0 |
| 20260509141351 | 23 | 159 | 4.8 | 8.0 | 0.00 | 0.00 | 0.00 | 91 | 1009.9 |
| 20260509140837 | 23 | 224 | 0.0 | 4.8 | 0.00 | 0.00 | 0.00 | 91 | 1010.1 |
| 20260509140351 | 23 | 224 | 0.0 | 12.9 | 0.00 | 0.00 | 0.00 | 91 | 1010.1 |
| 20260509135835 | 23 | 224 | 3.2 | 12.9 | 0.00 | 0.00 | 0.00 | 91 | 1010.0 |
| 20260509135320 | 23 | 177 | 3.2 | 9.7 | 0.00 | 0.00 | 0.00 | 91 | 1009.9 |
| 20260509134822 | 23 | 227 | 1.6 | 11.3 | 0.00 | 0.00 | 0.00 | 91 | 1010.1 |
| 20260509134327 | 23 | 195 | 3.2 | 12.9 | 0.00 | 0.00 | 0.00 | 91 | 1010.0 |
| 20260509133835 | 22 | 216 | 6.4 | 11.3 | 0.00 | 0.00 | 0.00 | 91 | 1009.9 |
| 20260509133341 | 22 | 215 | 4.8 | 9.7 | 0.00 | 0.00 | 0.00 | 91 | 1009.8 |
| 20260509034817 | 22 | 174 | 3.2 | 6.4 | 0.00 | 0.97 | 0.97 | 87 | 1009.5 |
| 20260509034329 | 22 | 127 | 1.6 | 4.8 | 0.00 | 0.97 | 0.97 | 87 | 1009.6 |
| 20260509033835 | 22 | 127 | 3.2 | 9.7 | 0.00 | 0.97 | 0.97 | 87 | 1009.5 |
| 20260509033342 | 22 | 111 | 3.2 | 12.9 | 0.00 | 0.97 | 0.97 | 87 | 1009.1 |
| 20260509032828 | 23 | 137 | 4.8 | 12.9 | 0.00 | 0.97 | 0.97 | 87 | 1009.1 |
| 20260509032349 | 23 | 115 | 4.8 | 11.3 | 0.00 | 0.97 | 0.97 | 87 | 1009.1 |
| 20260509031842 | 23 | 97 | 4.8 | 11.3 | 0.00 | 0.97 | 0.97 | 87 | 1009.0 |
| 20260509031319 | 23 | 109 | 6.4 | 14.5 | 0.00 | 0.97 | 0.97 | 87 | 1009.0 |
| 20260509030831 | 23 | 135 | 6.4 | 16.1 | 0.00 | 0.97 | 0.97 | 87 | 1009.0 |
| 20260509030337 | 23 | 141 | 6.4 | 16.1 | 0.00 | 0.97 | 0.97 | 87 | 1008.9 |
| 20260509025823 | 23 | 126 | 4.8 | 14.5 | 0.00 | 0.97 | 0.97 | 87 | 1008.9 |
| 20260509025327 | 23 | 133 | 6.4 | 14.5 | 0.00 | 0.97 | 0.97 | 87 | 1008.8 |
| 20260509024829 | 23 | 144 | 6.4 | 14.5 | 0.00 | 0.97 | 0.97 | 87 | 1008.7 |
| 20260509024335 | 23 | 131 | 6.4 | 12.9 | 0.00 | 0.97 | 0.97 | 87 | 1008.7 |
| 20260509023822 | 23 | 161 | 3.2 | 9.7 | 0.00 | 0.97 | 0.97 | 87 | 1008.8 |
| 20260509023322 | 23 | 153 | 3.2 | 8.0 | 0.00 | 0.97 | 0.97 | 87 | 1008.8 |
| 20260509022828 | 23 | 151 | 3.2 | 6.4 | 0.00 | 0.97 | 0.97 | 87 | 1009.0 |
| 20260509022327 | 23 | 144 | 1.6 | 4.8 | 0.00 | 0.97 | 0.97 | 87 | 1008.9 |
| 20260509021843 | 23 | 144 | 1.6 | 4.8 | 0.00 | 0.97 | 0.97 | 87 | 1008.9 |
| 20260509021346 | 23 | 144 | 1.6 | 4.8 | 0.00 | 0.97 | 0.97 | 86 | 1008.8 |
| 20260509020828 | 23 | 145 | 3.2 | 8.0 | 0.00 | 0.97 | 0.97 | 86 | 1008.7 |
| 20260509020329 | 23 | 145 | 3.2 | 12.9 | 0.00 | 0.97 | 0.97 | 87 | 1008.6 |
| 20260509015832 | 23 | 163 | 3.2 | 12.9 | 0.00 | 0.97 | 0.97 | 87 | 1008.7 |
| 20260509015337 | 23 | 140 | 4.8 | 12.9 | 0.00 | 0.97 | 0.97 | 87 | 1008.7 |
| 20260509014849 | 23 | 139 | 4.8 | 12.9 | 0.00 | 0.97 | 0.97 | 87 | 1008.6 |
| 20260509014334 | 23 | 153 | 4.8 | 12.9 | 0.00 | 0.97 | 0.97 | 86 | 1008.6 |
| 20260509013820 | 23 | 142 | 6.4 | 12.9 | 0.00 | 0.97 | 0.97 | 86 | 1008.6 |
| 20260509013327 | 23 | 128 | 6.4 | 12.9 | 0.00 | 0.97 | 0.97 | 86 | 1008.6 |
| 20260509012829 | 23 | 130 | 4.8 | 11.3 | 0.00 | 0.97 | 0.97 | 86 | 1008.7 |
| 20260509012355 | 24 | 145 | 4.8 | 11.3 | 0.00 | 0.97 | 0.97 | 87 | 1008.7 |
| 20260509011839 | 24 | 136 | 4.8 | 12.9 | 0.00 | 0.97 | 0.97 | 87 | 1008.6 |
| 20260509011345 | 24 | 105 | 4.8 | 12.9 | 0.00 | 0.97 | 0.97 | 87 | 1008.6 |
| 20260509010826 | 24 | 127 | 3.2 | 11.3 | 0.00 | 0.97 | 0.97 | 87 | 1008.5 |
| 20260509010334 | 24 | 126 | 4.8 | 11.3 | 0.00 | 0.97 | 0.97 | 87 | 1008.4 |
| 20260509005819 | 24 | 121 | 4.8 | 14.5 | 0.00 | 0.97 | 0.97 | 86 | 1008.3 |
| 20260509005319 | 24 | 113 | 8.0 | 14.5 | 0.00 | 0.97 | 0.97 | 86 | 1008.3 |
| 20260509004830 | 24 | 134 | 8.0 | 12.9 | 0.00 | 0.97 | 0.97 | 86 | 1008.5 |
| 20260509004334 | 24 | 116 | 6.4 | 12.9 | 0.00 | 0.97 | 0.97 | 87 | 1008.5 |
| 20260509003821 | 24 | 101 | 6.4 | 11.3 | 0.00 | 0.97 | 0.97 | 87 | 1008.6 |
| 20260509003327 | 25 | 97 | 3.2 | 9.7 | 0.00 | 0.97 | 0.97 | 87 | 1008.6 |
| 20260509002828 | 25 | 90 | 3.2 | 11.3 | 0.00 | 0.97 | 0.97 | 87 | 1008.5 |
| 20260509002330 | 25 | 99 | 4.8 | 11.3 | 0.00 | 0.97 | 0.97 | 87 | 1008.6 |
| 20260509001837 | 25 | 88 | 4.8 | 14.5 | 0.00 | 0.97 | 0.97 | 87 | 1008.5 |
| 20260509001321 | 25 | 111 | 6.4 | 14.5 | 0.00 | 0.97 | 0.97 | 87 | 1008.6 |
| 20260509000835 | 25 | 132 | 6.4 | 14.5 | 0.00 | 0.97 | 0.97 | 87 | 1008.6 |
| 20260509000340 | 25 | 111 | 8.0 | 12.9 | 0.00 | 0.97 | 0.97 | 87 | 1008.6 |
| 20260508235845 | 25 | 132 | 6.4 | 12.9 | 0.00 | 0.97 | 0.97 | 87 | 1008.6 |
| 20260508235326 | 25 | 112 | 4.8 | 16.1 | 0.00 | 0.97 | 0.97 | 87 | 1008.5 |
| 20260508234832 | 25 | 86 | 3.2 | 16.1 | 0.00 | 0.97 | 0.97 | 87 | 1008.6 |
| 20260508234358 | 25 | 127 | 4.8 | 14.5 | 0.00 | 0.97 | 0.97 | 87 | 1008.6 |
| 20260508233849 | 25 | 111 | 8.0 | 14.5 | 0.00 | 0.97 | 0.97 | 87 | 1008.7 |
| 20260508233336 | 25 | 70 | 6.4 | 14.5 | 0.00 | 0.97 | 0.97 | 87 | 1008.6 |
| 20260508232843 | 25 | 118 | 6.4 | 14.5 | 0.00 | 0.97 | 0.97 | 87 | 1008.5 |
| 20260508232349 | 25 | 49 | 8.0 | 16.1 | 0.00 | 0.97 | 0.97 | 87 | 1008.5 |
| 20260508231829 | 25 | 63 | 6.4 | 16.1 | 0.00 | 0.97 | 0.97 | 87 | 1008.5 |
| 20260508231335 | 25 | 68 | 8.0 | 14.5 | 0.00 | 0.97 | 0.97 | 87 | 1008.5 |
| 20260508230819 | 25 | 79 | 8.0 | 12.9 | 0.00 | 0.97 | 0.97 | 87 | 1008.6 |
| 20260508230350 | 25 | 94 | 4.8 | 17.7 | 0.00 | 0.97 | 0.97 | 87 | 1008.7 |
| 20260508225849 | 25 | 88 | 11.3 | 17.7 | 0.00 | 0.97 | 0.97 | 87 | 1008.6 |
| 20260508225338 | 25 | 86 | 11.3 | 17.7 | 0.00 | 0.97 | 0.97 | 88 | 1008.6 |
| 20260508224844 | 25 | 78 | 4.8 | 9.7 | 0.00 | 0.97 | 0.97 | 87 | 1008.7 |
| 20260508224325 | 25 | 73 | 6.4 | 11.3 | 0.00 | 0.97 | 0.97 | 87 | 1008.8 |
| 20260508223829 | 25 | 51 | 4.8 | 11.3 | 0.00 | 0.97 | 0.97 | 88 | 1008.8 |
| 20260508223336 | 25 | 109 | 3.2 | 11.3 | 0.00 | 0.97 | 0.97 | 88 | 1008.9 |
| 20260508222822 | 25 | 99 | 4.8 | 9.7 | 0.00 | 0.97 | 0.97 | 88 | 1008.8 |
| 20260508222355 | 25 | 93 | 4.8 | 9.7 | 0.00 | 0.97 | 0.97 | 88 | 1008.7 |
| 20260508221840 | 25 | 99 | 4.8 | 6.4 | 0.00 | 0.97 | 0.97 | 88 | 1008.8 |
| 20260508221347 | 25 | 105 | 3.2 | 6.4 | 0.00 | 0.97 | 0.97 | 88 | 1008.9 |
| 20260508220830 | 25 | 106 | 0.0 | 1.6 | 0.00 | 0.97 | 0.97 | 88 | 1008.9 |
| 20260508220320 | 25 | 106 | 0.0 | 4.8 | 0.00 | 0.97 | 0.97 | 88 | 1009.0 |
| 20260508215850 | 25 | 106 | 1.6 | 4.8 | 0.00 | 0.97 | 0.97 | 88 | 1009.0 |
| 20260508215351 | 25 | 106 | 1.6 | 6.4 | 0.00 | 0.97 | 0.97 | 88 | 1009.1 |
| 20260508214836 | 25 | 96 | 3.2 | 12.9 | 0.00 | 0.97 | 0.97 | 88 | 1009.0 |
| 20260508214323 | 25 | 126 | 8.0 | 12.9 | 0.00 | 0.97 | 0.97 | 88 | 1009.0 |
| 20260508213857 | 25 | 148 | 4.8 | 11.3 | 0.00 | 0.97 | 0.97 | 89 | 1009.0 |
| 20260508213342 | 25 | 142 | 1.6 | 9.7 | 0.00 | 0.97 | 0.97 | 89 | 1009.0 |
| 20260508212849 | 25 | 187 | 4.8 | 9.7 | 0.00 | 0.97 | 0.97 | 89 | 1009.0 |
| 20260508212329 | 25 | 82 | 4.8 | 9.7 | 0.00 | 0.97 | 0.97 | 89 | 1009.1 |
| 20260508211900 | 25 | 76 | 3.2 | 8.0 | 0.00 | 0.97 | 0.97 | 89 | 1009.2 |
| 20260508211345 | 24 | 101 | 1.6 | 6.4 | 0.00 | 0.97 | 0.97 | 89 | 1009.3 |
| 20260508210826 | 25 | 115 | 3.2 | 11.3 | 0.00 | 0.97 | 0.97 | 89 | 1009.4 |
| 20260508210357 | 25 | 105 | 4.8 | 11.3 | 0.00 | 0.97 | 0.97 | 88 | 1009.6 |
| 20260508205845 | 25 | 85 | 3.2 | 6.4 | 0.00 | 0.97 | 0.97 | 89 | 1009.5 |
| 20260508205325 | 24 | 89 | 3.2 | 9.7 | 0.00 | 0.97 | 0.97 | 89 | 1009.6 |
| 20260508204827 | 24 | 84 | 1.6 | 9.7 | 0.00 | 0.97 | 0.97 | 89 | 1009.7 |
| 20260508204329 | 24 | 75 | 4.8 | 8.0 | 0.00 | 0.97 | 0.97 | 89 | 1009.7 |
| 20260508203837 | 24 | 76 | 6.4 | 14.5 | 0.00 | 0.97 | 0.97 | 89 | 1009.8 |
| 20260508203347 | 24 | 84 | 11.3 | 14.5 | 0.00 | 0.97 | 0.97 | 89 | 1009.9 |
| 20260508202831 | 24 | 67 | 3.2 | 8.0 | 0.00 | 0.97 | 0.97 | 89 | 1009.9 |
| 20260508202335 | 24 | 69 | 3.2 | 11.3 | 0.00 | 0.97 | 0.97 | 89 | 1010.1 |
| 20260508201823 | 24 | 84 | 8.0 | 14.5 | 0.00 | 0.97 | 0.97 | 89 | 1010.1 |
| 20260508201326 | 24 | 82 | 4.8 | 14.5 | 0.00 | 0.97 | 0.97 | 89 | 1010.1 |
| 20260508200857 | 24 | 44 | 1.6 | 11.3 | 0.00 | 0.97 | 0.97 | 89 | 1010.1 |
| 20260508200343 | 23 | 53 | 4.8 | 11.3 | 0.00 | 0.97 | 0.97 | 89 | 1010.2 |
| 20260508195828 | 23 | 94 | 3.2 | 9.7 | 0.00 | 0.97 | 0.97 | 89 | 1010.2 |
| 20260508195325 | 23 | 49 | 4.8 | 12.9 | 0.00 | 0.97 | 0.97 | 89 | 1010.3 |
| 20260508194829 | 23 | 5 | 6.4 | 12.9 | 0.00 | 0.97 | 0.97 | 89 | 1010.3 |
| 20260508194336 | 23 | 63 | 6.4 | 14.5 | 0.00 | 0.97 | 0.97 | 89 | 1010.4 |
| 20260508193837 | 23 | 61 | 9.7 | 14.5 | 0.00 | 0.97 | 0.97 | 89 | 1010.4 |
| 20260508193318 | 23 | 94 | 6.4 | 11.3 | 0.00 | 0.97 | 0.97 | 89 | 1010.5 |
| 20260508192831 | 23 | 61 | 3.2 | 9.7 | 0.00 | 0.97 | 0.97 | 89 | 1010.7 |
| 20260508192354 | 23 | 46 | 4.8 | 11.3 | 0.00 | 0.97 | 0.97 | 89 | 1010.7 |
| 20260508191819 | 23 | 94 | 6.4 | 9.7 | 0.00 | 0.97 | 0.97 | 89 | 1010.8 |
| 20260508191321 | 22 | 54 | 1.6 | 8.0 | 0.00 | 0.97 | 0.97 | 89 | 1010.8 |
| 20260508190832 | 22 | 56 | 4.8 | 8.0 | 0.00 | 0.97 | 0.97 | 89 | 1011.0 |
| 20260508190337 | 22 | 118 | 4.8 | 9.7 | 0.00 | 0.97 | 0.97 | 89 | 1011.1 |
| 20260508185824 | 22 | 102 | 3.2 | 6.4 | 0.00 | 0.97 | 0.97 | 89 | 1011.3 |
| 20260508185327 | 22 | 101 | 3.2 | 8.0 | 0.00 | 0.97 | 0.97 | 89 | 1011.3 |
| 20260508184829 | 22 | 101 | 4.8 | 8.0 | 0.00 | 0.97 | 0.97 | 89 | 1011.4 |
| 20260508184332 | 22 | 82 | 4.8 | 8.0 | 0.00 | 0.97 | 0.97 | 89 | 1011.4 |
| 20260508183830 | 22 | 79 | 3.2 | 8.0 | 0.00 | 0.97 | 0.97 | 89 | 1011.5 |
| 20260508183335 | 22 | 167 | 4.8 | 9.7 | 0.00 | 0.97 | 0.97 | 89 | 1011.5 |
| 20260508182819 | 22 | 86 | 4.8 | 9.7 | 0.00 | 0.97 | 0.97 | 89 | 1011.5 |
| 20260508182352 | 22 | 65 | 6.4 | 9.7 | 0.00 | 0.97 | 0.97 | 89 | 1011.6 |
| 20260508181832 | 22 | 71 | 3.2 | 9.7 | 0.00 | 0.97 | 0.97 | 89 | 1011.6 |
| 20260508181338 | 22 | 77 | 4.8 | 12.9 | 0.00 | 0.97 | 0.97 | 89 | 1011.6 |
| 20260508180839 | 21 | 84 | 6.4 | 9.7 | 0.00 | 0.97 | 0.97 | 89 | 1011.7 |
| 20260508180331 | 21 | 109 | 3.2 | 11.3 | 0.00 | 0.97 | 0.97 | 89 | 1011.7 |
| 20260508175837 | 21 | 128 | 6.4 | 11.3 | 0.00 | 0.97 | 0.97 | 89 | 1011.8 |
| 20260508175340 | 21 | 67 | 3.2 | 9.7 | 0.00 | 0.97 | 0.97 | 89 | 1011.9 |
| 20260508174822 | 21 | 54 | 3.2 | 9.7 | 0.00 | 0.97 | 0.97 | 89 | 1011.9 |
| 20260508174354 | 21 | 38 | 3.2 | 9.7 | 0.00 | 0.97 | 0.97 | 89 | 1012.0 |
| 20260508173818 | 21 | 19 | 6.4 | 9.7 | 0.00 | 0.97 | 0.97 | 89 | 1012.1 |
| 20260508173322 | 21 | 12 | 4.8 | 9.7 | 0.00 | 0.97 | 0.97 | 89 | 1012.2 |
| 20260508172826 | 21 | 54 | 6.4 | 9.7 | 0.00 | 0.97 | 0.97 | 89 | 1012.1 |
| 20260508172331 | 21 | 53 | 3.2 | 12.9 | 0.00 | 0.97 | 0.97 | 89 | 1012.1 |
| 20260508171836 | 20 | 35 | 4.8 | 12.9 | 0.00 | 0.97 | 0.97 | 89 | 1012.1 |
| 20260508171317 | 20 | 57 | 3.2 | 12.9 | 0.00 | 0.97 | 0.97 | 89 | 1012.2 |
| 20260508170849 | 20 | 5 | 6.4 | 12.9 | 0.00 | 0.97 | 0.97 | 89 | 1012.2 |
| 20260508170331 | 20 | 45 | 6.4 | 14.5 | 0.00 | 0.97 | 0.97 | 89 | 1012.3 |
| 20260508165838 | 19 | 58 | 4.8 | 14.5 | 0.00 | 0.97 | 0.97 | 89 | 1012.3 |
| 20260508165321 | 19 | 61 | 6.4 | 12.9 | 0.00 | 0.97 | 0.97 | 89 | 1012.4 |
| 20260508164826 | 18 | 40 | 4.8 | 9.7 | 0.00 | 0.97 | 0.97 | 89 | 1012.4 |
| 20260508164358 | 18 | 47 | 4.8 | 12.9 | 0.00 | 0.97 | 0.97 | 89 | 1012.5 |
| 20260508163842 | 18 | 67 | 4.8 | 12.9 | 0.00 | 0.97 | 0.97 | 89 | 1012.6 |
| 20260508163327 | 18 | 49 | 4.8 | 8.0 | 0.00 | 0.97 | 0.97 | 88 | 1012.8 |
| 20260508162831 | 18 | 65 | 3.2 | 9.7 | 0.00 | 0.97 | 0.97 | 88 | 1012.8 |
| 20260508162329 | 18 | 88 | 4.8 | 8.0 | 0.00 | 0.97 | 0.97 | 88 | 1012.9 |
| 20260508161836 | 18 | 58 | 6.4 | 8.0 | 0.00 | 0.97 | 0.97 | 88 | 1013.0 |
| 20260508161323 | 18 | 40 | 1.6 | 6.4 | 0.00 | 0.97 | 0.97 | 88 | 1013.0 |
| 20260508160850 | 18 | 67 | 4.8 | 9.7 | 0.00 | 0.97 | 0.97 | 88 | 1012.9 |
| 20260508160317 | 18 | 69 | 4.8 | 9.7 | 0.00 | 0.97 | 0.97 | 88 | 1013.1 |
| 20260508155821 | 18 | 54 | 3.2 | 12.9 | 0.00 | 0.97 | 0.97 | 88 | 1013.0 |
| 20260508155331 | 18 | 78 | 4.8 | 12.9 | 0.00 | 0.97 | 0.97 | 88 | 1013.1 |
| 20260508154837 | 17 | 32 | 8.0 | 12.9 | 0.00 | 0.97 | 0.97 | 88 | 1013.1 |
| 20260508154343 | 17 | 77 | 6.4 | 14.5 | 0.00 | 0.97 | 0.97 | 88 | 1013.1 |
| 20260508153824 | 17 | 79 | 8.0 | 14.5 | 0.00 | 0.97 | 0.97 | 88 | 1013.4 |
| 20260508153357 | 17 | 96 | 8.0 | 14.5 | 0.00 | 0.97 | 0.97 | 88 | 1013.4 |
| 20260508152843 | 17 | 100 | 6.4 | 14.5 | 0.00 | 0.97 | 0.97 | 88 | 1013.3 |
| 20260508152324 | 17 | 90 | 6.4 | 14.5 | 0.00 | 0.97 | 0.97 | 88 | 1013.4 |
| 20260508151834 | 17 | 96 | 6.4 | 12.9 | 0.00 | 0.97 | 0.97 | 88 | 1013.4 |
| 20260508151338 | 17 | 107 | 4.8 | 9.7 | 0.00 | 0.97 | 0.97 | 88 | 1013.5 |
| 20260508150823 | 17 | 73 | 1.6 | 11.3 | 0.00 | 0.97 | 0.97 | 87 | 1013.6 |
| 20260508150329 | 17 | 78 | 6.4 | 11.3 | 0.00 | 0.97 | 0.97 | 87 | 1013.6 |
| 20260508145905 | 17 | 72 | 6.4 | 12.9 | 0.00 | 0.97 | 0.97 | 87 | 1013.6 |
| 20260508145346 | 17 | 84 | 6.4 | 12.9 | 0.00 | 0.97 | 0.97 | 87 | 1013.6 |
| 20260508144831 | 17 | 61 | 4.8 | 11.3 | 0.00 | 0.97 | 0.97 | 87 | 1013.5 |
| 20260508144338 | 17 | 55 | 4.8 | 14.5 | 0.00 | 0.97 | 0.97 | 87 | 1013.5 |